Weather History for Darwin Airport, Northern Territory

Change the Weather History Date:

Wednesday, October 9, 2013

  Actual Average Record
Temperature  
Mean Temperature 84 °F -  
Max Temperature 92 °F 92 °F - ()
Min Temperature 77 °F 77 °F - ()
Cooling Degree Days 20    
Growing Degree Days 34 (Base 50)    
Moisture  
Dew Point 75 °F    
Average Humidity 74    
Maximum Humidity 100    
Minimum Humidity 37    
Precipitation  
Precipitation 0.00 in 0.12 in - ()
Sea Level Pressure  
Sea Level Pressure 29.84 in    
Wind  
Wind Speed 8 mph ()    
Max Wind Speed 20 mph    
Max Gust Speed -    
Visibility 8.7 miles    
Events Fog    
T = Trace of Precipitation, MM = Missing Value Source: Averaged Metar Reports

Daily Weather History Graph

Daily Weather History Graph

Search for Another Location

Airport:

Trip Planner

Search our weather history database for the weather conditions in past years. The results will help you decide how hot, cold, wet, or windy it might be!

Date:

Astronomy

Oct. 09, 2013 Rise Set
Actual Time 6:24 AM ACST 6:42 PM ACST
Civil Twilight 6:03 AM ACST 7:04 PM ACST
Nautical Twilight 5:38 AM ACST 7:28 PM ACST
Astronomical Twilight 5:13 AM ACST 7:53 PM ACST
Moon 9:40 AM ACST (10/9) 10:44 PM ACST (10/9)
Length of Visible Light 13h 00m
Length of Day
12h 17m
Waxing Crescent, 20% of the Moon is Illuminated
Oct 9
Waxing Crescent
Oct 12
First Quarter
Oct 19
Full
Oct 27
Last Quarter
Nov 3
New

Hourly Weather History & Observations

Time (ACST) Temp. Heat Index Dew Point Humidity Pressure Visibility Wind Dir Wind Speed Gust Speed Precip Events Conditions
12:00 AM 81 °F - 75 °F 78% 29.86 in 19 mi NW 5.8 mph - -   Partly Cloudy
12:00 AM 80.6 °F 86.2 °F 75.2 °F 84% 29.86 in - NW 5.8 mph - N/A   Clear
12:30 AM 81 °F - 76 °F 80% 29.85 in - NNW 6.9 mph - -  
12:30 AM 80.6 °F 86.2 °F 75.2 °F 84% 29.86 in - NNW 6.9 mph - N/A   Clear
1:00 AM 82.4 °F 90.9 °F 77.0 °F 84% 29.83 in - NW 8.1 mph - N/A   Clear
1:30 AM 80.6 °F 87.1 °F 77.0 °F 89% 29.83 in - WNW 5.8 mph - N/A   Clear
2:00 AM 80.6 °F 87.1 °F 77.0 °F 89% 29.83 in - West 6.9 mph - N/A   Clear
2:30 AM 80.6 °F 87.1 °F 77.0 °F 89% 29.80 in - West 8.1 mph - N/A   Clear
3:00 AM 80 °F - 76 °F 86% 29.82 in 19 mi West 5.8 mph - -   Partly Cloudy
3:00 AM 80.6 °F 87.1 °F 77.0 °F 89% 29.80 in - West 5.8 mph - N/A   Clear
3:30 AM 80 °F - 77 °F 87% 29.82 in - West 5.8 mph - -  
3:30 AM 80.6 °F 87.1 °F 77.0 °F 89% 29.83 in - West 5.8 mph - N/A   Clear
4:00 AM 78.8 °F - 77.0 °F 94% 29.83 in - WSW 4.6 mph - N/A   Clear
4:30 AM 78.8 °F - 77.0 °F 94% 29.83 in - WSW 3.5 mph - N/A   Clear
5:00 AM 78.8 °F - 77.0 °F 94% 29.83 in - West 5.8 mph - N/A   Clear
5:30 AM 77.0 °F - 77.0 °F 100% 29.86 in - West 5.8 mph - N/A   Clear
6:00 AM 77 °F - 76 °F 95% 29.86 in 12 mi NW 4.6 mph - - Fog Patches of Fog
6:00 AM 77.0 °F - 75.2 °F 94% 29.86 in 6.2 mi NW 4.6 mph - N/A Fog Shallow Fog
6:30 AM 77 °F - 76 °F 96% 29.87 in - WNW 4.6 mph - -  
6:30 AM 77.0 °F - 77.0 °F 100% 29.86 in 6.2 mi WNW 4.6 mph - N/A Fog Shallow Fog
7:00 AM 78.8 °F - 77.0 °F 94% 29.86 in 6.2 mi West 5.8 mph - N/A   Mostly Cloudy
7:30 AM 82.4 °F 92.4 °F 78.8 °F 89% 29.86 in 6.2 mi West 8.1 mph - N/A   Scattered Clouds
8:00 AM 84.2 °F 96.1 °F 78.8 °F 84% 29.89 in 6.2 mi West 9.2 mph - N/A   Scattered Clouds
8:30 AM 86.0 °F 96.9 °F 77.0 °F 74% 29.89 in 6.2 mi WNW 9.2 mph - N/A   Scattered Clouds
9:00 AM 86 °F - 77 °F 67% 29.91 in 19 mi WNW 8.1 mph - -   Partly Cloudy
9:00 AM 86.0 °F 96.9 °F 77.0 °F 74% 29.92 in 6.2 mi WNW 8.1 mph - N/A   Scattered Clouds
9:30 AM 87 °F - 76 °F 61% 29.92 in - WNW 6.9 mph - -  
9:30 AM 87.8 °F 97.6 °F 75.2 °F 66% 29.92 in 6.2 mi WNW 6.9 mph - N/A   Scattered Clouds
10:00 AM 87.8 °F 97.6 °F 75.2 °F 66% 29.92 in 6.2 mi WNW 5.8 mph - N/A   Scattered Clouds
10:30 AM 87.8 °F 95.6 °F 73.4 °F 62% 29.89 in 6.2 mi NW 8.1 mph - N/A   Scattered Clouds
11:00 AM 89.6 °F 99.8 °F 75.2 °F 62% 29.89 in 6.2 mi WNW 8.1 mph - N/A   Scattered Clouds
11:30 AM 89.6 °F 99.8 °F 75.2 °F 62% 29.89 in 6.2 mi WNW 10.4 mph - N/A   Scattered Clouds
12:00 PM 89 °F - 76 °F 57% 29.87 in 19 mi WNW 11.5 mph - -   Partly Cloudy
12:00 PM 89.6 °F 99.8 °F 75.2 °F 62% 29.86 in 6.2 mi WNW 11.5 mph - N/A   Scattered Clouds
12:30 PM 90 °F - 74 °F 51% 29.86 in - WNW 12.7 mph - -  
12:30 PM 89.6 °F 99.8 °F 75.2 °F 62% 29.86 in 6.2 mi WNW 12.7 mph - N/A   Scattered Clouds
1:00 PM 91.4 °F 102.5 °F 75.2 °F 59% 29.83 in 6.2 mi NW 12.7 mph - N/A   Scattered Clouds
1:30 PM 89.6 °F 98.2 °F 73.4 °F 59% 29.83 in 6.2 mi WNW 13.8 mph - N/A   Scattered Clouds
2:00 PM 91.4 °F 100.1 °F 73.4 °F 55% 29.80 in 6.2 mi NW 16.1 mph - N/A   Scattered Clouds
2:30 PM 91.4 °F 98.4 °F 71.6 °F 52% 29.80 in 6.2 mi NW 17.3 mph - N/A   Scattered Clouds
3:00 PM 92 °F - 69 °F 37% 29.78 in 19 mi NW 17.3 mph - -   Partly Cloudy
3:00 PM 91.4 °F 96.8 °F 69.8 °F 49% 29.77 in 6.2 mi NW 17.3 mph - N/A   Scattered Clouds
3:30 PM 91 °F - 69 °F 38% 29.78 in - WNW 16.1 mph - -  
3:30 PM 91.4 °F 95.4 °F 68.0 °F 46% 29.77 in 6.2 mi WNW 16.1 mph - N/A   Scattered Clouds
4:00 PM 91.4 °F 98.4 °F 71.6 °F 52% 29.77 in 6.2 mi WNW 19.6 mph - N/A   Mostly Cloudy
4:30 PM 91.4 °F 94.0 °F 66.2 °F 43% 29.77 in 6.2 mi WNW 17.3 mph - N/A   Mostly Cloudy
5:00 PM 91.4 °F 96.8 °F 69.8 °F 49% 29.77 in 6.2 mi WNW 16.1 mph - N/A   Mostly Cloudy
5:30 PM 89.6 °F 96.2 °F 71.6 °F 55% 29.77 in - WNW 17.3 mph - N/A   Clear
6:00 PM 87 °F - 75 °F 60% 29.78 in 19 mi WNW 19.6 mph - -   Partly Cloudy
6:00 PM 86.0 °F 95.1 °F 75.2 °F 70% 29.77 in 6.2 mi WNW 19.6 mph - N/A   Mostly Cloudy
6:30 PM 85 °F - 76 °F 67% 29.79 in - WNW 17.3 mph - -  
6:30 PM 86.0 °F 95.1 °F 75.2 °F 70% 29.77 in 6.2 mi WNW 17.3 mph - N/A   Mostly Cloudy
7:00 PM 84.2 °F 94.1 °F 77.0 °F 79% 29.80 in 6.2 mi WNW 15.0 mph - N/A   Mostly Cloudy
7:30 PM 84.2 °F 94.1 °F 77.0 °F 79% 29.80 in 6.2 mi WNW 13.8 mph - N/A   Mostly Cloudy
8:00 PM 84.2 °F 94.1 °F 77.0 °F 79% 29.80 in 6.2 mi West 11.5 mph - N/A   Mostly Cloudy
8:30 PM 82.4 °F 90.9 °F 77.0 °F 84% 29.80 in 6.2 mi West 10.4 mph - N/A   Mostly Cloudy
9:00 PM 83 °F - 77 °F 77% 29.83 in 19 mi West 9.2 mph - -   Partly Cloudy
9:00 PM 82.4 °F 90.9 °F 77.0 °F 84% 29.83 in - West 9.2 mph - N/A   Clear
9:30 PM 83 °F - 77 °F 78% 29.84 in - West 9.2 mph - -  
9:30 PM 82.4 °F 90.9 °F 77.0 °F 84% 29.83 in - West 9.2 mph - N/A   Clear
10:00 PM 82.4 °F 90.9 °F 77.0 °F 84% 29.83 in 6.2 mi West 8.1 mph - N/A   Mostly Cloudy
10:30 PM 82.4 °F 90.9 °F 77.0 °F 84% 29.86 in - West 8.1 mph - N/A   Clear
11:00 PM 82.4 °F 90.9 °F 77.0 °F 84% 29.86 in - West 8.1 mph - N/A   Clear
11:30 PM 82.4 °F 92.4 °F 78.8 °F 89% 29.86 in - NNW 3.5 mph - N/A   Clear